Location: Lombard
(41.8800°N, 88.0080°W)
Time: 13:18:34
(UTC-06:00)

Transit 4A - Pass Details

Date: 29 November 2023
Orbit: 870 x 973 km, 66.8° (Epoch: 03 March)

Event Time Altitude Azimuth Distance (km) Brightness Sun altitude
Rises 23:21:39 0° 271° (W) 3,665 - -69.3°
Reaches altitude 10° 23:25:38 10° 294° (WNW) 2,714 - -69.5°
Maximum altitude 23:28:57 14° 326° (NNW) 2,394 - -69.6°
Drops below altitude 10° 23:32:16 10° 358° (N) 2,696 - -69.6°
Sets 23:36:12 0° 23° (NNE) 3,625 - -69.7°
